Bettles, AK

8:31 AM AKDT on July 16, 2019 (GMT -0800)
Bettles

Weather History for PABT - May, 2019

Change the Weather History Date:

Friday, May 31, 2019

  Actual Average Record
Temperature  
Mean Temperature 63 °F -  
Max Temperature 73 °F 63 °F 86 °F (1983)
Min Temperature 53 °F 42 °F 30 °F (2017)
Degree Days  
Heating Degree Days 2    
Growing Degree Days 13 (Base 50)    
Moisture  
Dew Point 36 °F    
Average Humidity 37    
Maximum Humidity 62    
Minimum Humidity 15    
Precipitation  
Precipitation 0.00 in - - ()
Sea Level Pressure  
Sea Level Pressure 29.77 in    
Wind  
Wind Speed 7 mph (NE)    
Max Wind Speed 15 mph    
Max Gust Speed 25 mph    
Visibility 10 miles    
Events      
Averages and records for this station are not official NWS values.
T = Trace of Precipitation, MM = Missing Value Source: NWS Daily Summary

Daily Weather History Graph

Daily Weather History Graph

Search for Another Location

Airport or City:

Astronomy

May. 31, 2019 Rise Set
Actual Time 2:45 AM AKDT 1:31 AM AKDT
Civil Twilight Sun does not set Sun does not set
Nautical Twilight Sun does not set Sun does not set
Astronomical Twilight Sun does not set Sun does not set
Moon 4:26 AM AKDT (5/31) 8:03 PM AKDT (5/31)
Length of Visible Light 24h 00m
Length of Day
22h 45m
Waning Crescent, 8% of the Moon is Illuminated
May 31
Waning Crescent
Jun 3
New
Jun 9
First Quarter
Jun 17
Full
Jun 25
Last Quarter

Hourly Weather History & Observations

Time (AKDT) Temp. Dew Point Humidity Pressure Visibility Wind Dir Wind Speed Gust Speed Precip Events Conditions
12:53 AM 55.9 °F 36.0 °F 47% 29.84 in 10.0 mi ENE 3.5 mph - N/A   Scattered Clouds
1:53 AM 52.0 °F 37.9 °F 59% 29.85 in 10.0 mi NE 6.9 mph - N/A   Scattered Clouds
2:53 AM 55.0 °F 36.0 °F 49% 29.84 in 10.0 mi NE 8.1 mph - N/A   Scattered Clouds
3:53 AM 54.0 °F 36.0 °F 51% 29.84 in 10.0 mi NNE 8.1 mph - N/A   Mostly Cloudy
4:53 AM 54.0 °F 36.0 °F 51% 29.84 in 10.0 mi NE 13.8 mph - N/A   Mostly Cloudy
5:53 AM 55.9 °F 36.0 °F 47% 29.83 in 10.0 mi NE 12.7 mph 23.0 mph N/A   Mostly Cloudy
6:53 AM 57.9 °F 36.0 °F 44% 29.82 in 10.0 mi NE 13.8 mph 25.3 mph N/A   Mostly Cloudy
7:53 AM 57.0 °F 36.0 °F 45% 29.82 in 10.0 mi NE 15.0 mph 23.0 mph N/A   Mostly Cloudy
8:53 AM 57.9 °F 37.0 °F 46% 29.82 in 10.0 mi Variable 6.9 mph - N/A   Mostly Cloudy
9:53 AM 60.1 °F 36.0 °F 41% 29.81 in 10.0 mi NE 12.7 mph 18.4 mph N/A   Mostly Cloudy
10:53 AM 64.0 °F 37.0 °F 37% 29.80 in 10.0 mi Variable 3.5 mph - N/A   Mostly Cloudy
11:53 AM 64.9 °F 35.1 °F 33% 29.78 in 10.0 mi NE 11.5 mph 17.3 mph N/A   Scattered Clouds
12:53 PM 66.9 °F 33.1 °F 28% 29.77 in 10.0 mi Variable 4.6 mph - N/A   Scattered Clouds
1:53 PM 69.1 °F 35.1 °F 29% 29.75 in 10.0 mi NNE 4.6 mph - N/A   Mostly Cloudy
2:53 PM 70.0 °F 34.0 °F 27% 29.74 in 10.0 mi Variable 5.8 mph - N/A   Mostly Cloudy
3:53 PM 70.0 °F 33.1 °F 26% 29.72 in 10.0 mi SSW 6.9 mph - N/A   Mostly Cloudy
4:53 PM 71.1 °F 35.1 °F 27% 29.70 in 10.0 mi NE 3.5 mph - N/A   Mostly Cloudy
5:53 PM 70.0 °F 34.0 °F 27% 29.69 in 10.0 mi WSW 4.6 mph - N/A   Mostly Cloudy
6:53 PM 73.0 °F 35.1 °F 25% 29.68 in 10.0 mi North 3.5 mph - N/A   Mostly Cloudy
7:53 PM 70.0 °F 35.1 °F 28% 29.68 in 10.0 mi SE 4.6 mph - N/A   Mostly Cloudy
8:53 PM 69.1 °F 34.0 °F 27% 29.68 in 10.0 mi South 5.8 mph - N/A   Mostly Cloudy
9:53 PM 66.0 °F 33.1 °F 29% 29.69 in 10.0 mi South 3.5 mph - N/A   Mostly Cloudy
10:53 PM 59.0 °F 39.9 °F 49% 29.71 in 10.0 mi Calm Calm - N/A   Scattered Clouds
11:53 PM 54.0 °F 41.0 °F 62% 29.72 in 10.0 mi Calm Calm - N/A   Scattered Clouds